| time (UTC) | temp F | wind direction | speed MPH | gust MPH | rain 1hr in | rain 24hr in | rain mn in | humidity % | barometer mb |
| 20260504041718 | 48 | 195 | 2.0 | 2.0 | 0.00 | 0.00 | 0.00 | 50 | 1011.3 |
| 20260504041214 | 48 | 168 | 3.0 | 3.0 | 0.00 | 0.00 | 0.00 | 52 | 1011.4 |
| 20260504040711 | 47 | 165 | 2.0 | 3.0 | 0.00 | 0.00 | 0.00 | 52 | 1011.3 |
| 20260504040208 | 48 | 163 | 3.0 | 3.0 | 0.00 | 0.00 | 0.00 | 52 | 1011.4 |
| 20260504035704 | 47 | 165 | 2.0 | 3.0 | 0.00 | 0.00 | 0.00 | 51 | 1011.1 |
| 20260504035202 | 48 | 160 | 3.0 | 3.0 | 0.00 | 0.00 | 0.00 | 52 | 1011.4 |
| 20260504034659 | 48 | 159 | 4.0 | 6.0 | 0.00 | 0.00 | 0.00 | 51 | 1011.3 |
| 20260504034155 | 48 | 157 | 2.0 | 2.0 | 0.00 | 0.00 | 0.00 | 52 | 1011.3 |
| 20260504033653 | 48 | 180 | 4.0 | 6.0 | 0.00 | 0.00 | 0.00 | 53 | 1011.4 |
| 20260504033150 | 48 | 172 | 4.0 | 4.0 | 0.00 | 0.00 | 0.00 | 52 | 1011.4 |
| 20260504032647 | 48 | 167 | 2.0 | 3.0 | 0.00 | 0.00 | 0.00 | 51 | 1011.4 |
| 20260504032144 | 48 | 172 | 2.0 | 2.0 | 0.00 | 0.00 | 0.00 | 51 | 1011.4 |
| 20260504031641 | 49 | 161 | 3.0 | 3.0 | 0.00 | 0.00 | 0.00 | 50 | 1011.4 |
| 20260504031138 | 50 | 171 | 2.0 | 2.0 | 0.00 | 0.00 | 0.00 | 47 | 1011.3 |
| 20260504030634 | 50 | 192 | 4.0 | 4.0 | 0.00 | 0.00 | 0.00 | 45 | 1011.5 |
| 20260504030131 | 50 | 192 | 2.0 | 3.0 | 0.00 | 0.00 | 0.00 | 45 | 1011.3 |
| 20260504025628 | 51 | 187 | 3.0 | 4.0 | 0.00 | 0.00 | 0.00 | 45 | 1011.5 |
| 20260504025125 | 51 | 202 | 4.0 | 4.0 | 0.00 | 0.00 | 0.00 | 45 | 1011.5 |
| 20260504024622 | 50 | 199 | 2.0 | 3.0 | 0.00 | 0.00 | 0.00 | 46 | 1011.5 |
| 20260504024118 | 51 | 180 | 3.0 | 4.0 | 0.00 | 0.00 | 0.00 | 45 | 1011.5 |
| 20260504023615 | 51 | 178 | 2.0 | 3.0 | 0.00 | 0.00 | 0.00 | 45 | 1011.5 |
| 20260504023111 | 51 | 174 | 1.0 | 1.0 | 0.00 | 0.00 | 0.00 | 45 | 1011.7 |
| 20260504022608 | 51 | 191 | 5.0 | 7.0 | 0.00 | 0.00 | 0.00 | 45 | 1011.8 |
| 20260504022103 | 51 | 174 | 3.0 | 3.0 | 0.00 | 0.00 | 0.00 | 45 | 1011.7 |
| 20260504021602 | 51 | 191 | 3.0 | 4.0 | 0.00 | 0.00 | 0.00 | 44 | 1011.8 |
| 20260504021058 | 51 | 188 | 2.0 | 2.0 | 0.00 | 0.00 | 0.00 | 45 | 1011.7 |
| 20260504020555 | 51 | 178 | 3.0 | 4.0 | 0.00 | 0.00 | 0.00 | 45 | 1011.7 |
| 20260504020051 | 51 | 193 | 3.0 | 3.0 | 0.00 | 0.00 | 0.00 | 44 | 1011.7 |
| 20260504015548 | 51 | 176 | 2.0 | 2.0 | 0.00 | 0.00 | 0.00 | 44 | 1011.6 |
| 20260504015044 | 51 | 184 | 4.0 | 4.0 | 0.00 | 0.00 | 0.00 | 43 | 1011.8 |
| 20260504014540 | 51 | 173 | 4.0 | 4.0 | 0.00 | 0.00 | 0.00 | 44 | 1011.8 |
| 20260504014038 | 52 | 173 | 2.0 | 3.0 | 0.00 | 0.00 | 0.00 | 42 | 1011.8 |
| 20260504013535 | 0 | 0.0 | 0.0 | 0.00 | 0.00 | 0.00 | 1011.6 | ||
| 20260504013032 | 52 | 191 | 3.0 | 3.0 | 0.00 | 0.00 | 0.00 | 41 | 1011.6 |
| 20260504012530 | 52 | 191 | 3.0 | 3.0 | 0.00 | 0.00 | 0.00 | 41 | 1011.5 |
| 20260504012027 | 52 | 181 | 1.0 | 1.0 | 0.00 | 0.00 | 0.00 | 41 | 1011.3 |
| 20260504011524 | 53 | 174 | 2.0 | 2.0 | 0.00 | 0.00 | 0.00 | 41 | 1011.3 |
| 20260504011020 | 53 | 181 | 3.0 | 4.0 | 0.00 | 0.00 | 0.00 | 40 | 1011.4 |
| 20260504010516 | 53 | 190 | 2.0 | 2.0 | 0.00 | 0.00 | 0.00 | 40 | 1011.2 |
| 20260504010012 | 53 | 188 | 4.0 | 4.0 | 0.00 | 0.00 | 0.00 | 40 | 1011.4 |
| 20260504005509 | 53 | 184 | 2.0 | 3.0 | 0.00 | 0.00 | 0.00 | 40 | 1011.4 |
| 20260504005006 | 53 | 197 | 5.0 | 7.0 | 0.00 | 0.00 | 0.00 | 40 | 1011.4 |
| 20260504004504 | 53 | 198 | 3.0 | 3.0 | 0.00 | 0.00 | 0.00 | 39 | 1011.4 |
| 20260504004000 | 54 | 176 | 2.0 | 2.0 | 0.00 | 0.00 | 0.00 | 39 | 1011.3 |
| 20260504003456 | 54 | 211 | 3.0 | 4.0 | 0.00 | 0.00 | 0.00 | 39 | 1011.5 |
| 20260504002954 | 54 | 193 | 3.0 | 3.0 | 0.00 | 0.00 | 0.00 | 38 | 1011.2 |
| 20260504002451 | 54 | 164 | 3.0 | 3.0 | 0.00 | 0.00 | 0.00 | 38 | 1011.3 |
| 20260504001948 | 55 | 198 | 5.0 | 6.0 | 0.00 | 0.00 | 0.00 | 37 | 1011.4 |
| 20260504001445 | 55 | 201 | 3.0 | 4.0 | 0.00 | 0.00 | 0.00 | 37 | 1011.3 |
| 20260504000942 | 55 | 201 | 4.0 | 6.0 | 0.00 | 0.00 | 0.00 | 37 | 1011.3 |
| 20260504000439 | 55 | 225 | 8.0 | 9.0 | 0.00 | 0.00 | 0.00 | 36 | 1011.3 |
| 20260503235936 | 55 | 223 | 7.0 | 10.0 | 0.00 | 0.00 | 0.00 | 36 | 1011.2 |
| 20260503235434 | 55 | 226 | 5.0 | 7.0 | 0.00 | 0.00 | 0.00 | 36 | 1011.3 |
| 20260503234931 | 55 | 220 | 6.0 | 7.0 | 0.00 | 0.00 | 0.00 | 35 | 1011.2 |
| 20260503234428 | 56 | 192 | 3.0 | 3.0 | 0.00 | 0.00 | 0.00 | 36 | 1011.3 |
| 20260503233927 | 56 | 175 | 4.0 | 6.0 | 0.00 | 0.00 | 0.00 | 35 | 1011.4 |
| 20260503233423 | 56 | 223 | 5.0 | 7.0 | 0.00 | 0.00 | 0.00 | 35 | 1011.4 |
| 20260503232919 | 56 | 172 | 3.0 | 4.0 | 0.00 | 0.00 | 0.00 | 34 | 1011.4 |
| 20260503232416 | 56 | 271 | 11.0 | 13.0 | 0.00 | 0.00 | 0.00 | 34 | 1011.4 |
| 20260503231914 | 56 | 220 | 5.0 | 7.0 | 0.00 | 0.00 | 0.00 | 34 | 1011.4 |
| 20260503231411 | 56 | 174 | 4.0 | 6.0 | 0.00 | 0.00 | 0.00 | 34 | 1011.4 |
| 20260503230907 | 57 | 176 | 6.0 | 8.0 | 0.00 | 0.00 | 0.00 | 34 | 1011.4 |
| 20260503230404 | 57 | 183 | 6.0 | 9.0 | 0.00 | 0.00 | 0.00 | 34 | 1011.5 |
| 20260503225902 | 57 | 233 | 10.0 | 14.0 | 0.00 | 0.00 | 0.00 | 33 | 1011.4 |
| 20260503225357 | 57 | 206 | 3.0 | 6.0 | 0.00 | 0.00 | 0.00 | 34 | 1011.4 |
| 20260503224854 | 57 | 204 | 5.0 | 8.0 | 0.00 | 0.00 | 0.00 | 34 | 1011.5 |
| 20260503224351 | 57 | 234 | 7.0 | 8.0 | 0.00 | 0.00 | 0.00 | 33 | 1011.4 |
| 20260503223849 | 57 | 241 | 6.0 | 7.0 | 0.00 | 0.00 | 0.00 | 34 | 1011.5 |
| 20260503223347 | 57 | 174 | 3.0 | 3.0 | 0.00 | 0.00 | 0.00 | 34 | 1011.6 |
| 20260503222842 | 57 | 172 | 10.0 | 13.0 | 0.00 | 0.00 | 0.00 | 33 | 1011.6 |
| 20260503222341 | 57 | 227 | 9.0 | 10.0 | 0.00 | 0.00 | 0.00 | 33 | 1011.5 |
| 20260503221838 | 58 | 202 | 4.0 | 7.0 | 0.00 | 0.00 | 0.00 | 33 | 1011.6 |
| 20260503221337 | 59 | 274 | 6.0 | 10.0 | 0.00 | 0.00 | 0.00 | 32 | 1011.7 |
| 20260503220832 | 59 | 238 | 8.0 | 14.0 | 0.00 | 0.00 | 0.00 | 31 | 1011.6 |
| 20260503220329 | 59 | 236 | 7.0 | 9.0 | 0.00 | 0.00 | 0.00 | 32 | 1011.6 |
| 20260503215826 | 58 | 213 | 6.0 | 9.0 | 0.00 | 0.00 | 0.00 | 34 | 1011.5 |
| 20260503215323 | 59 | 183 | 2.0 | 3.0 | 0.00 | 0.00 | 0.00 | 34 | 1011.3 |
| 20260503214821 | 57 | 223 | 6.0 | 7.0 | 0.00 | 0.00 | 0.00 | 33 | 1011.5 |
| 20260503214318 | 57 | 167 | 6.0 | 9.0 | 0.00 | 0.00 | 0.00 | 34 | 1011.4 |
| 20260503213815 | 58 | 198 | 4.0 | 4.0 | 0.00 | 0.00 | 0.00 | 34 | 1011.4 |
| 20260503213313 | 59 | 231 | 6.0 | 8.0 | 0.00 | 0.00 | 0.00 | 32 | 1011.4 |
| 20260503212810 | 58 | 202 | 5.0 | 6.0 | 0.00 | 0.00 | 0.00 | 33 | 1011.3 |
| 20260503212308 | 58 | 283 | 8.0 | 9.0 | 0.00 | 0.00 | 0.00 | 32 | 1011.5 |
| 20260503211805 | 58 | 191 | 2.0 | 3.0 | 0.00 | 0.00 | 0.00 | 34 | 1011.4 |
| 20260503211301 | 58 | 206 | 7.0 | 9.0 | 0.00 | 0.00 | 0.00 | 33 | 1011.5 |
| 20260503210801 | 58 | 222 | 6.0 | 9.0 | 0.00 | 0.00 | 0.00 | 33 | 1011.6 |
| 20260503210259 | 57 | 258 | 3.0 | 6.0 | 0.00 | 0.00 | 0.00 | 33 | 1011.4 |
| 20260503205754 | 58 | 222 | 6.0 | 8.0 | 0.00 | 0.00 | 0.00 | 33 | 1011.6 |
| 20260503205251 | 57 | 209 | 4.0 | 4.0 | 0.00 | 0.00 | 0.00 | 33 | 1011.7 |
| 20260503204747 | 57 | 186 | 3.0 | 6.0 | 0.00 | 0.00 | 0.00 | 34 | 1011.8 |
| 20260503204245 | 58 | 243 | 10.0 | 14.0 | 0.00 | 0.00 | 0.00 | 32 | 1011.7 |
| 20260503203742 | 57 | 243 | 11.0 | 13.0 | 0.00 | 0.00 | 0.00 | 32 | 1011.9 |
| 20260503203240 | 58 | 177 | 3.0 | 4.0 | 0.00 | 0.00 | 0.00 | 33 | 1011.9 |
| 20260503202737 | 57 | 201 | 6.0 | 13.0 | 0.00 | 0.00 | 0.00 | 34 | 1011.9 |
| 20260503202234 | 57 | 248 | 6.0 | 8.0 | 0.00 | 0.00 | 0.00 | 33 | 1011.8 |
| 20260503201732 | 59 | 274 | 7.0 | 9.0 | 0.00 | 0.00 | 0.00 | 31 | 1012.0 |
| 20260503201229 | 57 | 185 | 11.0 | 13.0 | 0.00 | 0.00 | 0.00 | 33 | 1011.8 |
| 20260503200726 | 58 | 212 | 3.0 | 4.0 | 0.00 | 0.00 | 0.00 | 32 | 1012.0 |
| 20260503200222 | 58 | 250 | 7.0 | 8.0 | 0.00 | 0.00 | 0.00 | 32 | 1012.2 |
| 20260503195719 | 58 | 212 | 5.0 | 7.0 | 0.00 | 0.00 | 0.00 | 33 | 1012.1 |
| 20260503195216 | 57 | 208 | 8.0 | 11.0 | 0.00 | 0.00 | 0.00 | 32 | 1012.1 |
| 20260503194713 | 57 | 210 | 4.0 | 6.0 | 0.00 | 0.00 | 0.00 | 32 | 1012.4 |
| 20260503194209 | 57 | 256 | 5.0 | 8.0 | 0.00 | 0.00 | 0.00 | 33 | 1012.3 |
| 20260503193705 | 57 | 286 | 11.0 | 14.0 | 0.00 | 0.00 | 0.00 | 32 | 1012.3 |
| 20260503193201 | 58 | 220 | 5.0 | 7.0 | 0.00 | 0.00 | 0.00 | 32 | 1012.5 |
| 20260503192657 | 58 | 238 | 5.0 | 8.0 | 0.00 | 0.00 | 0.00 | 31 | 1012.5 |
| 20260503192152 | 58 | 244 | 9.0 | 13.0 | 0.00 | 0.00 | 0.00 | 32 | 1012.6 |
| 20260503191649 | 58 | 186 | 8.0 | 11.0 | 0.00 | 0.00 | 0.00 | 31 | 1012.6 |
| 20260503191147 | 57 | 187 | 3.0 | 4.0 | 0.00 | 0.00 | 0.00 | 32 | 1013.0 |
| 20260503190643 | 58 | 301 | 8.0 | 11.0 | 0.00 | 0.00 | 0.00 | 32 | 1012.9 |
| 20260503190140 | 57 | 204 | 4.0 | 7.0 | 0.00 | 0.00 | 0.00 | 32 | 1013.0 |
| 20260503185637 | 56 | 168 | 6.0 | 8.0 | 0.00 | 0.00 | 0.00 | 33 | 1013.1 |
| 20260503185132 | 56 | 242 | 3.0 | 6.0 | 0.00 | 0.00 | 0.00 | 34 | 1013.3 |
| 20260503184627 | 55 | 186 | 8.0 | 10.0 | 0.00 | 0.00 | 0.00 | 35 | 1013.3 |
| 20260503184124 | 57 | 202 | 6.0 | 10.0 | 0.00 | 0.00 | 0.00 | 34 | 1013.3 |
| 20260503183621 | 57 | 203 | 5.0 | 7.0 | 0.00 | 0.00 | 0.00 | 33 | 1013.3 |
| 20260503183118 | 56 | 192 | 4.0 | 6.0 | 0.00 | 0.00 | 0.00 | 34 | 1013.4 |
| 20260503182616 | 57 | 236 | 8.0 | 11.0 | 0.00 | 0.00 | 0.00 | 33 | 1013.4 |
| 20260503182114 | 57 | 256 | 5.0 | 6.0 | 0.00 | 0.00 | 0.00 | 32 | 1013.5 |
| 20260503181611 | 56 | 306 | 8.0 | 10.0 | 0.00 | 0.00 | 0.00 | 33 | 1013.4 |
| 20260503181108 | 55 | 205 | 4.0 | 4.0 | 0.00 | 0.00 | 0.00 | 34 | 1013.4 |
| 20260503180605 | 54 | 215 | 12.0 | 15.0 | 0.00 | 0.00 | 0.00 | 35 | 1013.6 |
| 20260503175559 | 55 | 292 | 8.0 | 8.0 | 0.00 | 0.00 | 0.00 | 33 | 1013.6 |
| 20260503175056 | 55 | 241 | 11.0 | 13.0 | 0.00 | 0.00 | 0.00 | 33 | 1013.8 |
| 20260503174553 | 55 | 118 | 9.0 | 14.0 | 0.00 | 0.00 | 0.00 | 33 | 1013.8 |
| 20260503174050 | 56 | 296 | 7.0 | 8.0 | 0.00 | 0.00 | 0.00 | 33 | 1013.8 |
| 20260503173545 | 55 | 206 | 6.0 | 8.0 | 0.00 | 0.00 | 0.00 | 33 | 1013.9 |
| 20260503173041 | 54 | 151 | 4.0 | 6.0 | 0.00 | 0.00 | 0.00 | 33 | 1014.1 |
| 20260503172539 | 54 | 222 | 10.0 | 13.0 | 0.00 | 0.00 | 0.00 | 34 | 1013.9 |
| 20260503172036 | 54 | 315 | 5.0 | 9.0 | 0.00 | 0.00 | 0.00 | 35 | 1013.9 |
| 20260503171532 | 53 | 210 | 5.0 | 7.0 | 0.00 | 0.00 | 0.00 | 35 | 1014.1 |
| 20260503171030 | 54 | 325 | 9.0 | 10.0 | 0.00 | 0.00 | 0.00 | 34 | 1014.0 |
| 20260503170526 | 55 | 313 | 5.0 | 7.0 | 0.00 | 0.00 | 0.00 | 33 | 1014.3 |
| 20260503150918 | 50 | 236 | 7.0 | 9.0 | 0.00 | 0.00 | 0.00 | 39 | 1014.8 |
| 20260503150415 | 50 | 331 | 8.0 | 10.0 | 0.00 | 0.00 | 0.00 | 37 | 1015.0 |
| 20260503131308 | 44 | 196 | 4.0 | 6.0 | 0.00 | 0.00 | 0.00 | 59 | 1015.3 |
| 20260503130806 | 44 | 266 | 3.0 | 6.0 | 0.00 | 0.00 | 0.00 | 60 | 1015.3 |
| 20260503130303 | 44 | 198 | 4.0 | 4.0 | 0.00 | 0.00 | 0.00 | 60 | 1015.2 |
| 20260503110657 | 34 | 164 | 1.0 | 1.0 | 0.00 | 0.00 | 0.00 | 88 | 1014.2 |
| 20260503110154 | 33 | 186 | 1.0 | 1.0 | 0.00 | 0.00 | 0.00 | 88 | 1014.4 |
| 20260503100120 | 32 | 176 | 0.0 | 0.0 | 0.00 | 0.00 | 0.00 | 89 | 1013.6 |
| 20260503081510 | 35 | 172 | 1.0 | 1.0 | 0.00 | 0.00 | 0.00 | 82 | 1013.6 |
| 20260503081007 | 35 | 184 | 2.0 | 3.0 | 0.00 | 0.00 | 0.00 | 82 | 1013.6 |
| 20260503080503 | 35 | 176 | 1.0 | 1.0 | 0.00 | 0.00 | 0.00 | 82 | 1013.6 |
| 20260503072939 | 36 | 174 | 0.0 | 0.0 | 0.00 | 0.00 | 0.00 | 80 | 1013.4 |
| 20260503072437 | 36 | 186 | 2.0 | 2.0 | 0.00 | 0.00 | 0.00 | 81 | 1013.3 |
| 20260503071934 | 36 | 193 | 2.0 | 3.0 | 0.00 | 0.00 | 0.00 | 80 | 1013.4 |
| 20260503071431 | 36 | 176 | 1.0 | 1.0 | 0.00 | 0.00 | 0.00 | 80 | 1013.2 |
| 20260503070927 | 36 | 185 | 2.0 | 2.0 | 0.00 | 0.00 | 0.00 | 80 | 1013.3 |
| 20260503070424 | 36 | 203 | 2.0 | 3.0 | 0.00 | 0.00 | 0.00 | 80 | 1013.4 |
| 20260503054838 | 36 | 190 | 1.0 | 2.0 | 0.00 | 0.00 | 0.00 | 81 | 1013.3 |
| 20260503054333 | 36 | 183 | 2.0 | 2.0 | 0.00 | 0.00 | 0.00 | 80 | 1013.5 |
| 20260503053831 | 36 | 207 | 1.0 | 1.0 | 0.00 | 0.00 | 0.00 | 80 | 1013.4 |
| 20260503053330 | 36 | 203 | 2.0 | 2.0 | 0.00 | 0.00 | 0.00 | 80 | 1013.5 |
| 20260503052826 | 36 | 225 | 2.0 | 3.0 | 0.00 | 0.00 | 0.00 | 80 | 1013.5 |
| 20260503052323 | 36 | 184 | 2.0 | 2.0 | 0.00 | 0.00 | 0.00 | 79 | 1013.5 |
| 20260503051819 | 36 | 210 | 2.0 | 3.0 | 0.00 | 0.00 | 0.00 | 78 | 1013.6 |
| 20260503051315 | 36 | 195 | 2.0 | 2.0 | 0.00 | 0.00 | 0.00 | 77 | 1013.6 |
| 20260503050812 | 36 | 188 | 2.0 | 2.0 | 0.00 | 0.00 | 0.00 | 77 | 1013.5 |
| 20260503050308 | 36 | 197 | 2.0 | 2.0 | 0.00 | 0.00 | 0.00 | 76 | 1013.7 |
| 20260503045806 | 36 | 205 | 2.0 | 2.0 | 0.00 | 0.00 | 0.00 | 75 | 1013.9 |
| 20260503045305 | 36 | 197 | 2.0 | 2.0 | 0.00 | 0.00 | 0.00 | 75 | 1013.7 |
| 20260503044800 | 36 | 188 | 1.0 | 2.0 | 0.00 | 0.00 | 0.00 | 74 | 1013.7 |
| 20260503044257 | 37 | 197 | 2.0 | 3.0 | 0.00 | 0.00 | 0.00 | 74 | 1013.7 |
| 20260503043754 | 37 | 194 | 2.0 | 2.0 | 0.00 | 0.00 | 0.00 | 74 | 1013.8 |
| 20260503043251 | 37 | 185 | 2.0 | 2.0 | 0.00 | 0.00 | 0.00 | 74 | 1013.7 |
| 20260503042747 | 37 | 193 | 2.0 | 2.0 | 0.00 | 0.00 | 0.00 | 74 | 1013.8 |
| 20260503042244 | 37 | 198 | 2.0 | 2.0 | 0.00 | 0.00 | 0.00 | 75 | 1013.7 |